Location: Peterborough
(44.3091°N, 78.3197°W)
Time: 23:47:52
(UTC-05:00)

A-11 Canister half - Pass Details

Date: 15 December 2023
Orbit: 1512 x 1687 km, 47.2° (Epoch: 24 February)

Event Time Altitude Azimuth Distance (km) Brightness Sun altitude
Exits shadow 03:27:15 39° 141° (SE) 2,306 9.9 -44.5°
Drops below altitude 10° 03:33:01 10° 130° (SE) 3,929 11.4 -43.5°
Sets 03:36:13 0° 128° (SE) 4,926 12.1 -42.9°
